Content
SEND FEEDBACK

Daily
Averages
Monthly
Summary
United States of America

ASHEVILLE, NORTH CAROLINA


Home > North America > United States > North Carolina
Elevation: 2240 feet     Latitude: 35 36N     Longitude: 082 32W

WEATHER
 
SELECT A DAY
Number of Records: 230,393;   Date Range: 1/1/95 - 11/25/14
 
SHARE

PRINT THIS DATA

[ ← Previous Day ]
WEATHER ALMANAC - MARCH 15, 2013
[ Next Day → ]
[ °C ]   °F
Weather ElementAverageHighLow
Temperature49.8 °F68 °F (2:54 pm)28 °F (6:54 am)
Dewpoint27 °F37.9 °F (11:54 pm)15.1 °F (1:54 am)
Humidity44.4 %69 % (6:54 am)21 % (5:54 pm)
Barometer30.05 in30.19 in (1:54 am)29.91 in (5:54 pm)
Wind Speed5 mph13.8 mph (5:54 pm)
Wind Gust21.9 mph (2:54 pm)
Weather ElementAverage
Visibility10 mi
Wind DirectionSSE (145.4 °)

Weather ElementTotal
Precipitation---
Heating Degree Days17 (Base 65)
Averaged from 24 records on March 15, 2013
WEATHER CONDITIONS BREAKOUT
WIND DIRECTION BREAKOUT
WEATHER BY HOUR - MARCH 15, 2013
[ °C ]   °F
Local TimeTemperatureDewpointHumidityBarometerVisibilityWind DirectionWind SpeedGust SpeedPrecipitationEventsConditions
1:54 AM32.0 °F15.1 °F50 %30.19 in10.0 miCalmClear
2:54 AM30.2 °F15.8 °F55 %30.16 in10.0 miCalmClear
3:54 AM32.0 °F17.1 °F54 %30.14 in10.0 miNorth (350°)4.6 mphClear
4:54 AM33.1 °F19.0 °F56 %30.15 in10.0 miNNW (340°)8.1 mphClear
5:54 AM32.0 °F21.0 °F64 %30.16 in10.0 miCalmClear
6:54 AM28.0 °F19.0 °F69 %30.17 in10.0 miCalmClear
7:54 AM28.0 °F19.0 °F69 %30.18 in10.0 miCalmClear
8:54 AM30.9 °F19.9 °F64 %30.18 in10.0 miSSE (150°)3.5 mphClear
9:54 AM37.9 °F21.9 °F53 %30.17 in10.0 miCalmClear
10:54 AM44.1 °F26.1 °F49 %30.14 in10.0 miSouth (170°)3.5 mphClear
11:54 AM50.0 °F28.9 °F44 %30.10 in10.0 miSSE (160°)4.6 mphClear
12:54 PM55.9 °F30.9 °F39 %30.06 in10.0 miSouth (170°)5.8 mphClear
1:54 PM62.1 °F33.1 °F34 %30.01 in10.0 miVariable4.6 mphClear
2:54 PM68.0 °F30.0 °F24 %29.98 in10.0 miWNW (290°)12.7 mph21.9 mphClear
3:54 PM66.9 °F28.9 °F24 %29.94 in10.0 miWest (260°)10.4 mph20.7 mphClear
4:54 PM68.0 °F30.0 °F24 %29.92 in10.0 miWSW (250°)11.5 mph20.7 mphClear
5:54 PM68.0 °F27.0 °F21 %29.91 in10.0 miWest (270°)13.8 mph20.7 mphClear
6:54 PM66.9 °F30.9 °F26 %29.92 in10.0 miWest (270°)9.2 mph18.4 mphMostly Cloudy
7:03 PM66.2 °F32.0 °F28 %29.94 in10.0 miWest (270°)11.5 mph21.9 mphMostly Cloudy
7:54 PM64.0 °F35.1 °F34 %29.94 in10.0 miWest (260°)11.5 mph19.6 mphClear
8:54 PM63.0 °F36.0 °F37 %29.94 in10.0 miWest (280°)4.6 mphClear
9:54 PM59.0 °F37.0 °F44 %29.94 in10.0 miCalmPartly Cloudy
10:54 PM57.0 °F37.0 °F47 %29.93 in10.0 miCalmScattered Clouds
11:54 PM53.1 °F37.9 °F57 %29.92 in10.0 miCalmPartly Cloudy
Hourly data recorded from KAVL, located miles away from Asheville, North Carolina







STORIES FROM OUR PARTNERS